Location: Highland Meadows Observing Site
(48.4428°N, 114.5461°W)
Time: 02:54:51
(UTC-06:00)

Gurwin Techsat 1B - Visible Passes

Search period start: 22 April 2018 00:00
Search period end: 02 May 2018 00:00
Orbit: 812 x 814 km, 98.6° (Epoch: 21 April)

Date Brightness Start Highest point End Pass type
(mag) Time Alt. Az. Time Alt. Az. Time Alt. Az.
22 Apr 8.9 03:21:55 10° NNE 03:27:12 59° E 03:28:26 47° SSE visible
22 Apr 10.0 05:02:33 10° N 05:06:46 24° WNW 05:09:39 16° WSW visible
23 Apr 9.5 02:59:17 10° NNE 03:04:15 38° E 03:05:25 34° SE visible
23 Apr 9.5 04:39:21 10° N 04:44:09 35° WNW 04:46:37 23° WSW visible
24 Apr 10.1 02:36:51 10° NE 02:41:14 25° E 02:42:24 23° ESE visible
24 Apr 8.9 04:16:18 10° N 04:21:28 52° WNW 04:23:36 32° SW visible
24 Apr 10.8 05:59:50 10° NW 06:00:15 10° NW 06:00:40 10° NW visible
25 Apr 10.6 02:14:48 10° NE 02:18:07 16° E 02:19:23 15° ESE visible
25 Apr 8.5 03:53:22 10° NNE 03:58:42 79° WNW 04:00:35 42° SSW visible
25 Apr 10.5 05:34:57 10° NNW 05:37:49 15° NW 05:40:42 10° W visible
26 Apr 11.1 01:54:27 10° ENE 01:54:56 10° E 01:55:25 10° E visible
26 Apr 8.7 03:30:32 10° NNE 03:35:52 69° ESE 03:37:33 43° S visible
26 Apr 10.1 05:11:23 10° N 05:15:18 21° WNW 05:18:47 12° WSW visible
27 Apr 9.3 03:07:50 10° NNE 03:12:57 45° E 03:14:33 35° SE visible
27 Apr 9.7 04:48:07 10° N 04:52:43 31° WNW 04:55:45 18° WSW visible
28 Apr 10.0 02:45:19 10° NE 02:49:58 29° E 02:51:31 25° SE visible
28 Apr 9.1 04:25:01 10° N 04:30:04 45° WNW 04:32:44 25° SW visible
29 Apr 10.5 02:23:05 10° NE 02:26:53 19° E 02:28:30 17° ESE visible
29 Apr 8.7 04:02:02 10° N 04:07:20 68° WNW 04:09:42 33° SW visible
29 Apr 10.6 05:44:01 10° NNW 05:46:19 13° NW 05:48:38 10° WNW visible
30 Apr 10.9 02:01:34 10° ENE 02:03:43 12° E 02:05:28 11° ESE visible
30 Apr 8.6 03:39:10 10° NNE 03:44:31 81° ESE 03:46:41 37° S visible
30 Apr 10.3 05:20:15 10° NNW 05:23:50 19° NW 05:27:24 10° W visible
01 May 9.1 03:16:25 10° NNE 03:21:38 53° E 03:23:39 34° SSE visible
01 May 9.9 04:56:54 10° N 05:01:17 27° WNW 05:04:52 14° WSW visible
